Wind_Speed
41 43 43 44 45 45 47 48 50 51 53 55 56 57 57 58 58 58 58 57 57 56 56 56 57 58 59 60 60 60 60 59 59 58 58 57 56 55 54 52 51 51 52
44 44 44 45 45 46 48 51 53 55 57 58 60 61 61 62 62 62 62 61 61 60 58 57 57 58 59 59 60 60 60 60 59 59 58 57 57 57 55 53 50 49 49
45 45 46 47 49 51 54 58 61 63 65 67 68 69 69 69 68 68 68 67 66 65 64 62 61 61 60 60 60 61 61 60 60 59 59 59 59 58 57 55 53 50 49
48 50 52 54 57 60 63 67 70 72 74 76 77 77 77 77 75 74 73 72 70 69 68 67 65 64 63 62 62 63 62 61 60 60 60 60 60 60 59 59 58 55 54
56 59 62 64 66 69 72 74 77 80 82 83 84 83 82 81 79 78 76 75 73 71 70 68 67 66 65 64 63 63 63 62 62 61 61 61 62 62 62 61 61 60 60
66 68 70 72 74 76 78 80 82 83 84 85 84 83 81 78 76 74 72 72 71 70 69 68 67 66 65 63 63 62 62 62 62 62 62 62 62 61 61 61 61 61 61
73 73 75 78 79 80 81 81 80 79 78 77 75 74 72 70 68 66 65 66 68 69 68 67 66 65 63 61 59 59 60 61 62 62 61 61 60 59 59 60 61 62 61
74 75 78 79 79 79 78 76 73 70 67 66 66 65 65 63 61 59 58 59 61 63 63 62 60 59 57 55 54 55 56 58 60 60 60 60 58 57 57 58 59 61 61
75 75 76 76 75 73 69 65 64 64 63 65 66 66 64 61 57 54 53 54 56 57 55 55 55 53 51 50 51 53 54 55 57 57 57 56 56 57 57 57 58 60 60
76 76 74 72 67 62 58 58 62 65 66 67 66 63 58 55 53 52 50 50 51 52 52 52 52 52 51 49 49 49 49 49 49 50 52 53 54 55 56 57 58 59 61
74 72 68 62 55 52 53 57 60 61 61 57 52 46 44 44 46 47 46 46 47 49 51 50 50 51 50 48 46 44 43 43 44 46 49 50 51 52 52 54 56 57 58
66 61 54 48 46 48 51 54 55 53 49 43 37 34 33 34 37 40 41 42 44 46 47 48 48 49 49 45 43 42 42 42 44 46 48 49 49 50 50 51 52 54 56
54 48 44 43 44 46 48 50 49 46 41 35 31 29 28 28 30 32 34 36 39 42 44 44 44 46 46 43 41 42 43 43 44 45 46 47 48 48 48 49 50 52 54
47 43 41 41 42 44 46 46 45 41 37 32 30 28 27 27 26 26 26 28 33 36 40 40 41 41 40 39 40 42 43 44 44 44 44 44 44 45 46 47 48 49 50
42 39 38 38 39 42 43 43 41 38 35 32 30 28 27 26 25 23 23 23 25 29 32 35 37 38 38 38 40 42 44 44 43 42 40 40 40 41 42 43 44 46 46
38 36 35 36 38 40 41 41 39 37 34 32 30 28 27 26 24 22 22 22 23 24 26 29 31 33 35 36 38 41 42 42 40 39 38 38 38 38 38 39 41 42 43
36 35 34 35 37 38 40 40 39 37 34 32 31 28 27 26 24 22 21 20 21 22 24 25 28 30 32 34 36 38 40 39 39 38 38 38 36 35 36 37 39 40 42
34 33 33 35 36 38 40 40 39 38 35 33 31 29 28 26 24 23 21 20 20 21 23 24 26 28 30 33 35 36 37 38 38 37 37 36 35 34 35 36 38 40 42
34 34 34 36 37 39 40 41 40 38 36 34 32 30 29 28 26 24 22 21 21 22 23 24 25 27 30 32 34 35 35 36 36 35 34 34 34 33 34 35 37 40 42
34 34 35 36 38 40 41 42 41 40 38 36 34 32 31 30 29 27 25 24 24 24 24 25 26 27 29 31 33 34 34 35 35 34 33 33 34 34 34 35 36 38 40
36 36 36 37 39 41 42 42 42 41 40 38 36 34 33 32 31 30 29 28 28 28 28 28 28 29 30 31 33 34 35 35 35 34 32 33 33 34 34 35 36 38 39
37 37 38 39 41 43 44 44 44 43 41 39 38 36 34 33 33 32 32 32 32 32 32 32 33 33 33 34 35 35 36 36 35 35 34 34 34 34 34 35 36 37 39
39 39 40 42 44 45 46 45 45 44 42 40 38 37 36 35 34 34 34 33 34 35 36 37 37 38 38 38 39 39 39 40 39 39 39 38 38 37 37 36 36 36 38
41 42 43 45 47 48 48 47 47 46 44 42 40 38 37 36 36 35 35 36 36 37 38 39 41 42 43 44 44 44 44 45 45 45 45 45 43 43 42 41 40 39 39
44 46 47 49 49 50 49 49 49 48 47 45 43 41 40 39 38 38 38 38 38 39 40 41 43 45 47 48 50 50 50 51 51 52 52 52 51 50 49 48 47 46 45
48 49 51 52 52 52 52 52 52 51 50 48 47 46 45 44 43 43 43 42 42 42 43 44 45 47 49 51 53 55 56 56 57 57 58 58 58 57 56 55 54 53 52
Wind_Direction
295 295 294 293 290 287 285 283 282 282 281 280 279 279 278 277 277 276 276 275 273 272 271 270 270 269 269 268 267 266 265 263 263 261 260 260 259 260 261 260 260 260 261
297 297 296 294 291 288 286 285 285 286 286 285 283 282 280 280 279 279 278 277 275 274 273 271 270 269 269 268 268 266 265 264 263 261 260 258 257 257 257 256 255 256 258
301 300 299 298 296 293 291 290 291 291 291 291 289 287 285 284 282 281 279 278 277 275 274 272 271 269 268 267 266 266 264 264 263 261 259 258 257 256 256 254 254 254 254
304 303 303 302 300 298 296 295 295 295 294 293 291 290 288 286 285 283 280 278 277 275 273 272 270 268 267 265 264 263 262 262 261 260 259 258 257 256 255 255 253 252 252
306 307 306 305 302 301 299 298 297 296 295 294 292 290 288 286 284 282 279 277 274 271 270 268 267 265 264 262 261 260 259 258 258 258 257 257 257 256 256 255 254 253 253
310 310 308 305 303 302 301 299 298 296 295 293 291 289 287 285 282 278 275 272 270 267 265 264 263 262 261 260 259 258 256 255 255 255 256 256 257 258 257 256 255 254 254
311 310 308 306 304 303 301 300 298 296 294 292 290 288 287 284 280 276 270 265 263 262 261 260 261 261 261 260 259 257 255 253 253 254 254 255 255 256 256 255 255 254 253
311 309 307 306 304 303 302 300 298 296 294 291 289 287 286 284 281 276 269 263 261 260 260 260 262 263 262 262 260 257 254 253 252 253 253 254 253 253 253 253 253 252 252
309 307 305 304 303 303 302 302 301 299 296 293 289 286 283 280 278 274 270 264 259 258 260 261 261 261 261 260 259 256 253 252 252 252 252 252 253 253 253 252 251 251 250
308 306 305 304 304 304 305 306 307 306 303 298 293 287 281 274 271 268 266 262 257 254 254 257 258 259 259 257 256 252 249 250 251 251 252 253 253 253 254 253 252 251 250
306 304 303 303 304 307 310 312 313 313 311 307 301 292 282 274 269 266 264 261 256 252 250 249 253 255 253 253 251 249 250 253 255 255 254 254 254 255 255 254 252 251 249
302 302 303 304 308 312 316 319 322 323 322 318 312 304 295 285 276 270 267 263 258 253 250 248 250 250 249 247 248 249 252 255 258 258 256 255 255 254 253 253 252 250 248
307 307 307 309 313 317 321 325 328 330 328 324 320 314 306 299 290 279 272 266 260 255 251 250 249 249 247 246 248 252 255 258 260 259 258 256 254 253 253 252 252 249 246
312 311 311 313 318 322 326 329 332 333 330 327 324 319 314 311 305 292 280 272 264 259 254 251 250 249 247 247 250 253 256 259 261 261 259 256 253 253 254 253 252 248 243
312 312 314 317 322 325 328 331 332 333 331 327 323 320 318 315 313 303 289 279 269 260 255 252 250 249 248 250 252 254 258 260 261 260 259 257 255 254 254 253 250 243 238
314 316 318 322 325 328 330 331 331 330 328 325 322 319 317 316 314 308 299 285 273 261 254 252 251 251 249 251 253 256 258 260 260 260 261 259 256 254 252 251 245 237 234
317 319 321 324 327 330 331 331 330 328 325 322 320 317 314 313 312 309 302 291 277 264 255 250 248 249 249 250 252 255 258 259 260 262 262 258 254 253 250 246 239 234 232
318 319 320 323 327 329 330 330 329 327 323 319 316 314 311 309 307 305 301 292 280 268 256 249 246 246 248 250 252 253 256 259 261 262 259 254 252 251 248 244 238 234 233
321 321 322 324 326 328 329 329 328 326 322 318 313 310 307 304 302 300 296 289 282 274 264 255 249 247 248 250 251 253 255 257 259 258 255 251 248 246 245 243 240 238 236
325 324 323 324 325 326 328 328 327 325 322 318 313 309 304 300 297 294 290 286 281 276 271 264 258 253 251 251 251 252 253 255 254 253 250 248 245 243 244 243 243 242 242
326 325 325 325 325 326 327 327 326 325 322 319 316 310 305 300 295 291 286 283 279 275 271 267 263 260 257 255 254 253 253 253 252 251 249 248 247 245 244 245 245 246 247
327 326 325 325 326 326 326 326 326 324 321 319 316 312 307 301 296 291 287 282 277 274 271 267 264 262 261 259 258 256 254 253 251 250 250 249 248 248 248 248 249 250 251
327 326 326 326 325 325 325 325 325 323 320 317 314 311 308 304 298 292 287 283 278 274 271 268 265 262 260 260 260 258 257 255 253 252 251 250 250 250 250 251 252 253 255
327 326 325 325 324 324 324 324 323 321 319 316 312 309 306 303 299 294 289 283 279 275 271 268 265 262 260 259 258 258 258 256 255 255 254 253 253 253 252 253 254 256 258
327 326 325 324 324 323 323 322 321 319 317 314 311 307 303 300 297 294 289 285 280 276 272 268 265 262 260 259 258 257 256 256 256 255 255 254 254 255 255 255 256 258 260
327 326 325 324 323 323 322 320 319 317 314 311 308 305 301 297 294 291 288 285 281 277 273 269 266 263 261 259 258 257 257 256 255 255 255 255 255 256 256 256 257 258 259
Height
5757 5754 5750 5746 5742 5738 5734 5731 5727 5724 5720 5717 5714 5712 5709 5707 5705 5703 5702 5700 5700 5700 5700 5700 5700 5700 5701 5701 5701 5702 5704 5705 5706 5708 5710 5712 5713 5715 5717 5719 5721 5722 5723
5747 5743 5738 5734 5730 5726 5722 5718 5714 5709 5705 5701 5698 5696 5693 5691 5689 5686 5685 5683 5682 5682 5683 5683 5683 5683 5684 5685 5685 5686 5688 5689 5690 5692 5694 5696 5699 5700 5703 5705 5707 5709 5710
5736 5731 5726 5721 5717 5712 5707 5702 5698 5693 5688 5684 5680 5676 5674 5672 5670 5667 5665 5664 5663 5663 5663 5664 5665 5665 5667 5668 5669 5670 5671 5673 5674 5676 5678 5680 5683 5685 5688 5691 5693 5694 5696
5723 5717 5712 5707 5701 5695 5690 5684 5678 5673 5667 5662 5658 5654 5651 5649 5647 5644 5642 5642 5642 5641 5641 5643 5644 5645 5647 5649 5651 5652 5654 5655 5657 5659 5661 5664 5666 5669 5672 5675 5677 5680 5681
5708 5702 5696 5689 5683 5676 5670 5664 5657 5651 5644 5638 5632 5628 5625 5622 5620 5618 5616 5616 5618 5618 5619 5621 5622 5623 5626 5628 5631 5633 5635 5637 5639 5642 5645 5646 5649 5651 5655 5658 5661 5664 5666
5692 5685 5678 5670 5663 5656 5649 5641 5634 5626 5619 5612 5606 5601 5597 5595 5593 5592 5590 5589 5591 5592 5595 5598 5599 5601 5604 5608 5611 5614 5617 5619 5622 5625 5628 5630 5633 5634 5637 5641 5645 5649 5651
5674 5666 5658 5649 5641 5633 5625 5616 5609 5602 5594 5586 5580 5574 5570 5568 5567 5567 5565 5565 5566 5567 5571 5575 5578 5581 5584 5589 5592 5595 5598 5601 5604 5607 5610 5613 5616 5619 5621 5624 5627 5632 5635
5656 5647 5637 5627 5618 5609 5601 5592 5584 5577 5571 5563 5558 5552 5548 5544 5544 5544 5543 5544 5545 5547 5551 5556 5560 5562 5567 5571 5575 5578 5581 5584 5587 5590 5593 5596 5600 5603 5605 5609 5612 5615 5620
5638 5628 5617 5607 5597 5588 5580 5571 5562 5555 5549 5542 5535 5531 5526 5523 5522 5523 5524 5525 5527 5530 5535 5539 5543 5546 5551 5555 5559 5562 5564 5567 5570 5574 5577 5580 5583 5587 5589 5593 5596 5600 5604
5618 5607 5597 5587 5578 5570 5563 5555 5545 5535 5525 5517 5509 5505 5503 5502 5502 5503 5505 5507 5510 5514 5519 5524 5528 5532 5536 5541 5544 5547 5549 5552 5554 5558 5561 5564 5567 5570 5573 5577 5580 5584 5588
5599 5589 5580 5572 5564 5557 5549 5540 5530 5518 5506 5495 5488 5484 5483 5483 5484 5486 5488 5490 5494 5498 5502 5508 5513 5518 5522 5526 5530 5532 5535 5537 5540 5543 5546 5549 5552 5555 5558 5561 5564 5568 5572
5584 5574 5566 5559 5553 5546 5538 5528 5517 5505 5493 5484 5477 5473 5471 5471 5471 5472 5473 5475 5478 5483 5487 5492 5498 5503 5508 5512 5516 5518 5521 5524 5527 5529 5532 5534 5537 5540 5542 5545 5548 5552 5556
5569 5561 5554 5549 5543 5535 5527 5517 5507 5496 5486 5478 5472 5468 5465 5463 5461 5461 5461 5463 5466 5469 5474 5479 5483 5489 5494 5498 5502 5504 5508 5510 5513 5515 5517 5519 5522 5524 5527 5530 5533 5537 5541
5556 5550 5545 5540 5533 5526 5517 5508 5499 5490 5482 5475 5469 5464 5460 5457 5454 5452 5452 5453 5455 5458 5462 5466 5471 5476 5480 5484 5488 5491 5494 5497 5499 5501 5503 5505 5507 5510 5512 5515 5518 5522 5527
5548 5542 5537 5531 5524 5517 5509 5501 5493 5485 5478 5471 5466 5461 5457 5453 5449 5447 5446 5446 5447 5449 5452 5456 5460 5464 5468 5472 5476 5479 5482 5484 5486 5488 5489 5491 5493 5496 5498 5501 5504 5508 5514
5540 5534 5529 5523 5517 5510 5502 5495 5487 5480 5474 5468 5462 5457 5453 5449 5445 5442 5441 5440 5440 5441 5444 5447 5450 5454 5458 5461 5465 5467 5469 5471 5473 5475 5477 5479 5481 5483 5486 5488 5492 5496 5501
5532 5527 5522 5516 5510 5503 5496 5489 5482 5475 5469 5463 5458 5453 5449 5445 5441 5438 5436 5435 5435 5435 5436 5439 5441 5444 5447 5450 5453 5456 5458 5460 5462 5463 5465 5466 5469 5471 5474 5476 5480 5485 5490
5526 5521 5515 5510 5503 5496 5489 5482 5476 5469 5463 5458 5453 5448 5444 5440 5437 5434 5432 5430 5430 5430 5430 5431 5433 5435 5438 5440 5442 5444 5446 5448 5450 5451 5453 5455 5458 5460 5462 5465 5470 5474 5480
5520 5514 5508 5502 5496 5490 5483 5476 5469 5463 5457 5451 5446 5442 5438 5434 5431 5429 5427 5425 5424 5424 5424 5424 5425 5427 5429 5430 5432 5434 5436 5438 5439 5440 5442 5444 5447 5450 5452 5455 5460 5464 5469
5514 5508 5502 5496 5490 5483 5476 5469 5462 5456 5449 5444 5439 5435 5431 5427 5424 5422 5420 5418 5417 5417 5416 5416 5417 5418 5419 5420 5422 5424 5426 5427 5428 5430 5432 5433 5435 5438 5441 5445 5449 5453 5457
5508 5502 5496 5490 5484 5477 5470 5462 5455 5449 5442 5436 5431 5426 5422 5419 5416 5414 5412 5410 5409 5408 5408 5408 5408 5409 5409 5410 5411 5413 5414 5416 5417 5419 5422 5423 5424 5427 5431 5434 5438 5441 5445
5503 5496 5490 5484 5477 5470 5463 5455 5448 5441 5434 5428 5423 5418 5413 5410 5406 5404 5402 5400 5399 5398 5398 5398 5398 5398 5399 5399 5400 5401 5403 5404 5406 5408 5410 5412 5414 5416 5419 5422 5425 5429 5432
5496 5490 5483 5477 5469 5462 5455 5447 5440 5433 5426 5420 5414 5409 5404 5400 5396 5393 5391 5389 5388 5387 5386 5386 5386 5386 5386 5387 5388 5389 5390 5392 5393 5395 5397 5400 5402 5404 5407 5410 5412 5416 5418
5490 5483 5476 5469 5461 5454 5446 5438 5431 5423 5417 5411 5405 5400 5395 5390 5386 5382 5380 5377 5375 5374 5373 5372 5372 5372 5372 5373 5374 5375 5376 5378 5379 5381 5383 5386 5389 5391 5393 5396 5399 5401 5404
5484 5476 5468 5460 5452 5444 5436 5428 5421 5413 5407 5400 5394 5389 5384 5379 5375 5371 5367 5364 5362 5359 5358 5357 5356 5356 5356 5356 5357 5358 5360 5361 5363 5365 5367 5370 5373 5375 5378 5381 5383 5386 5389
5476 5468 5460 5451 5442 5433 5425 5417 5409 5402 5395 5388 5382 5376 5371 5366 5361 5357 5353 5349 5346 5344 5342 5340 5339 5339 5338 5338 5339 5340 5341 5343 5344 5346 5349 5351 5354 5357 5360 5363 5366 5369 5372